Location: Newark
(45.2862°N, 9.8850°E)
Time: 06:34:27
(UTC+00:00)

N. Korean satellite - Pass Details

Date: 15 December 2019
Orbit: 454 x 508 km, 97.2° (Epoch: 20 January)

Event Time Altitude Azimuth Distance (km) Brightness Sun altitude
Rises 04:26:35 0° 26° (NNE) 2,527 10.4 -24.6°
Reaches altitude 10° 04:29:03 10° 43° (NE) 1,633 9.6 -24.2°
Maximum altitude 04:31:43 20° 94° (E) 1,117 9.2 -23.7°
Drops below altitude 10° 04:34:21 10° 144° (SE) 1,603 9.8 -23.3°
Sets 04:36:45 0° 161° (SSE) 2,465 10.5 -22.9°
